Location: Bednik
(45.3500°N, 16.3833°E)
Time: 09:55:07
(UTC+00:00)

Cosmos 614 Rocket - Pass Details

Date: 08 August 2020
Orbit: 733 x 764 km, 74.1° (Epoch: 20 September)

Event Time Altitude Azimuth Distance (km) Brightness Sun altitude
Rises 19:34:23 0° 202° (SSW) 3,175 7.0 -13.2°
Reaches altitude 10° 19:36:43 10° 203° (SSW) 2,260 6.3 -13.5°
Maximum altitude 19:41:51 81° 292° (WNW) 768 4.1 -14.2°
Drops below altitude 10° 19:47:05 10° 20° (NNE) 2,297 6.8 -14.9°
Sets 19:49:28 0° 21° (NNE) 3,230 7.5 -15.2°
